Voltar ao catálogo

STARLINK-32863

AtivoComunicaçõesVLEO
NORAD 62968·PAYLOAD·🇺🇸 United States

Lançado Feb 11, 2025 de Vandenberg Space Force Base

Loading…

Próximas Passagens (próximas 24 horas)

TLE

AtualizadoSource: CelesTrak SupGP

Época: Sep 15, 2026, 02:16 UTC

1 62968C 25029W   26258.09493056 -.00019932  00000+0 -64108-3 0  2583
2 62968  53.1589  71.2946 0001172  83.6776   1.9218 15.31706149    10

Acompanhe STARLINK-32863 em tempo real com AllMySat

Download on the App Store